Location: Long Island Community Building
(39.9491°N, 99.5338°W)
Time: 16:44:06
(UTC+00:00)

ATLAS 5 CENTAUR R/B - Pass Details

Date: 06 December 2019
Orbit: 550 x 1109 km, 63.4° (Epoch: 17 January)

Event Time Altitude Azimuth Distance (km) Brightness Sun altitude
Exits shadow 12:24:09 14° 333° (NNW) 1,779 3.5 -15.1°
Drops below altitude 10° 12:26:09 10° 358° (N) 2,099 4.1 -14.8°
Sets 12:29:44 0° 23° (NNE) 3,143 5.3 -14.1°
